When you browse on this site, cookies collect data to enhance your experience and personalize the content and advertising you see.
Visit our Privacy Policy to learn more. By continuing to use the site, you agree to this use of cookies and data.
  • In Hungary
  • List of Countries
  • For 7 days
  • Water Temperature
  • Satellite Maps
  • Weather Map
  • News
  • Weather Widgets
  • user-avatar
    Login

    Hourly Weather Linares

    Today, 19 January, Saturday

    Time Temperature Precipitation Wind Pressure Humidity
    00:00 +5°C° 0 mm 1 mps 727 mmHg 78%
    01:00 +4°C° 0 mm 1 mps 727 mmHg 80%
    02:00 +4°C° 0 mm 1 mps 727 mmHg 82%
    03:00 +4°C° 0 mm 1 mps 727 mmHg 85%
    04:00 +3°C° 0 mm 1 mps 727 mmHg 86%
    05:00 +3°C° 0 mm 1 mps 727 mmHg 87%
    06:00 +2°C° 0 mm 0 mps 726 mmHg 88%
    07:00 +3°C° 0 mm 0 mps 726 mmHg 84%
    08:00 +4°C° 0 mm 0 mps 726 mmHg 79%
    09:00 +5°C° 0 mm 0 mps 726 mmHg 75%
    10:00 +8°C° 0 mm 1 mps 726 mmHg 69%
    11:00 +10°C° 0 mm 1 mps 726 mmHg 62%
    12:00 +10°C° 0 mm 1 mps 726 mmHg 60%
    13:00 +9°C° 0.1 mm 2 mps 726 mmHg 61%
    14:00 +10°C° 0.1 mm 3 mps 725 mmHg 62%
    15:00 +10°C° 0.1 mm 3 mps 725 mmHg 63%
    16:00 +9°C° 0.3 mm 3 mps 724 mmHg 72%
    17:00 +8°C° 0.3 mm 2 mps 724 mmHg 80%
    18:00 +7°C° 0.3 mm 2 mps 724 mmHg 88%
    19:00 +7°C° 1 mm 2 mps 723 mmHg 90%
    20:00 +7°C° 1 mm 2 mps 723 mmHg 91%
    21:00 +7°C° 1 mm 2 mps 723 mmHg 93%
    22:00 +8°C° 0.6 mm 1 mps 723 mmHg 93%
    23:00 +8°C° 0.6 mm 1 mps 722 mmHg 93%

    Tomorrow, 20 January, Sunday

    Time Temperature Precipitation Wind Pressure Humidity
    00:00 +9°C° 0.6 mm 1 mps 722 mmHg 92%
    01:00 +9°C° 0.2 mm 1 mps 721 mmHg 94%
    02:00 +8°C° 0.2 mm 2 mps 721 mmHg 95%
    03:00 +8°C° 0.2 mm 2 mps 721 mmHg 97%
    04:00 +8°C° 1 mm 2 mps 720 mmHg 97%
    05:00 +9°C° 1 mm 2 mps 720 mmHg 97%
    06:00 +9°C° 1 mm 2 mps 720 mmHg 97%
    07:00 +9°C° 0.5 mm 3 mps 720 mmHg 96%
    08:00 +9°C° 0.5 mm 3 mps 720 mmHg 95%
    09:00 +9°C° 0.5 mm 3 mps 721 mmHg 94%
    10:00 +10°C° 0.6 mm 4 mps 721 mmHg 87%
    11:00 +10°C° 0.6 mm 4 mps 721 mmHg 80%
    12:00 +10°C° 0.6 mm 5 mps 722 mmHg 72%
    13:00 +10°C° 0 mm 5 mps 722 mmHg 64%
    14:00 +12°C° 0 mm 5 mps 722 mmHg 57%
    15:00 +13°C° 0 mm 4 mps 723 mmHg 49%
    16:00 +11°C° 0 mm 3 mps 723 mmHg 53%
    17:00 +10°C° 0 mm 2 mps 724 mmHg 58%
    18:00 +9°C° 0 mm 1 mps 724 mmHg 63%
    19:00 +8°C° 0 mm 1 mps 725 mmHg 65%
    20:00 +7°C° 0 mm 1 mps 725 mmHg 66%
    21:00 +7°C° 0 mm 1 mps 726 mmHg 68%
    22:00 +6°C° 0 mm 1 mps 726 mmHg 70%
    23:00 +5°C° 0 mm 0 mps 726 mmHg 72%

    Day after tomorrow, 21 January, Monday

    Time Temperature Precipitation Wind Pressure Humidity
    00:00 +4°C° 0 mm 0 mps 727 mmHg 74%
    01:00 +4°C° 0 mm 0 mps 727 mmHg 75%
    02:00 +4°C° 0 mm 0 mps 727 mmHg 77%
    03:00 +4°C° 0 mm 1 mps 727 mmHg 78%
    04:00 +4°C° 0 mm 1 mps 727 mmHg 79%
    05:00 +4°C° 0 mm 1 mps 727 mmHg 80%
    06:00 +4°C° 0 mm 1 mps 727 mmHg 81%
    07:00 +5°C° 0 mm 1 mps 728 mmHg 77%
    08:00 +6°C° 0 mm 1 mps 728 mmHg 73%
    09:00 +7°C° 0 mm 1 mps 729 mmHg 69%
    10:00 +8°C° 0 mm 1 mps 729 mmHg 63%
    11:00 +10°C° 0 mm 1 mps 729 mmHg 56%
    12:00 +11°C° 0 mm 1 mps 729 mmHg 50%
    13:00 +10°C° 0 mm 2 mps 729 mmHg 49%
    14:00 +10°C° 0 mm 2 mps 728 mmHg 48%
    15:00 +12°C° 0 mm 2 mps 728 mmHg 47%
    16:00 +9°C° 0 mm 2 mps 728 mmHg 52%
    17:00 +8°C° 0 mm 1 mps 728 mmHg 57%
    18:00 +7°C° 0 mm 1 mps 729 mmHg 62%
    19:00 +6°C° 0 mm 0 mps 729 mmHg 63%
    20:00 +5°C° 0 mm 0 mps 729 mmHg 64%
    21:00 +5°C° 0 mm 0 mps 730 mmHg 65%
    22:00 +5°C° 0 mm 0 mps 730 mmHg 68%
    23:00 +4°C° 0 mm 0 mps 730 mmHg 70%

    22 January, Tuesday

    Time Temperature Precipitation Wind Pressure Humidity
    00:00 +3°C° 0 mm 0 mps 730 mmHg 73%
    01:00 +3°C° 0 mm 0 mps 729 mmHg 74%
    02:00 +3°C° 0 mm 0 mps 729 mmHg 76%
    03:00 +3°C° 0 mm 1 mps 729 mmHg 77%
    04:00 +3°C° 0 mm 1 mps 728 mmHg 78%
    05:00 +3°C° 0 mm 1 mps 728 mmHg 80%
    06:00 +3°C° 0 mm 1 mps 728 mmHg 81%
    07:00 +4°C° 0 mm 1 mps 728 mmHg 77%
    08:00 +5°C° 0 mm 1 mps 728 mmHg 73%
    09:00 +6°C° 0 mm 1 mps 728 mmHg 70%
    10:00 +6°C° 0 mm 2 mps 727 mmHg 64%
    11:00 +8°C° 0 mm 3 mps 727 mmHg 59%
    12:00 +8°C° 0 mm 5 mps 727 mmHg 54%
    13:00 +8°C° 0 mm 5 mps 726 mmHg 57%
    14:00 +8°C° 0 mm 5 mps 725 mmHg 60%
    15:00 +8°C° 0 mm 6 mps 724 mmHg 63%
    16:00 +8°C° 0.1 mm 5 mps 724 mmHg 69%
    17:00 +7°C° 0.1 mm 4 mps 724 mmHg 75%
    18:00 +8°C° 0.1 mm 3 mps 724 mmHg 81%
    19:00 +7°C° 0 mm 3 mps 724 mmHg 83%
    20:00 +5°C° 0 mm 3 mps 724 mmHg 85%
    21:00 +4°C° 0 mm 3 mps 725 mmHg 87%
    22:00 +4°C° 0 mm 3 mps 725 mmHg 86%
    23:00 +3°C° 0 mm 3 mps 725 mmHg 85%

    23 January, Wednesday

    Time Temperature Precipitation Wind Pressure Humidity
    00:00 +3°C° 0 mm 2 mps 725 mmHg 84%
    01:00 +3°C° 0 mm 2 mps 725 mmHg 85%
    02:00 +2°C° 0 mm 2 mps 724 mmHg 87%
    03:00 +2°C° 0 mm 2 mps 724 mmHg 89%
    04:00 +2°C° 0 mm 2 mps 724 mmHg 90%
    05:00 +2°C° 0 mm 2 mps 724 mmHg 90%
    06:00 +1°C° 0 mm 2 mps 724 mmHg 91%
    07:00 +1°C° 0 mm 3 mps 724 mmHg 87%
    08:00 +1°C° 0 mm 4 mps 724 mmHg 83%
    09:00 +3°C° 0 mm 4 mps 724 mmHg 79%
    10:00 +4°C° 0 mm 6 mps 723 mmHg 72%
    11:00 +6°C° 0 mm 7 mps 723 mmHg 65%
    12:00 +8°C° 0 mm 9 mps 722 mmHg 58%
    13:00 +9°C° 0 mm 8 mps 722 mmHg 60%
    14:00 +9°C° 0 mm 8 mps 721 mmHg 63%
    15:00 +9°C° 0 mm 8 mps 720 mmHg 66%
    16:00 +9°C° 0 mm 7 mps 720 mmHg 70%
    17:00 +8°C° 0 mm 6 mps 720 mmHg 74%
    18:00 +8°C° 0 mm 5 mps 721 mmHg 78%
    19:00 +7°C° 0 mm 5 mps 721 mmHg 81%
    20:00 +6°C° 0 mm 4 mps 721 mmHg 84%
    21:00 +6°C° 0 mm 4 mps 722 mmHg 87%
    22:00 +5°C° 0 mm 3 mps 722 mmHg 88%
    23:00 +4°C° 0 mm 3 mps 722 mmHg 90%

    24 January, Thursday

    Time Temperature Precipitation Wind Pressure Humidity
    00:00 +4°C° 0 mm 3 mps 722 mmHg 91%
    01:00 +5°C° 0 mm 2 mps 722 mmHg 92%
    02:00 +4°C° 0 mm 2 mps 722 mmHg 93%
    03:00 +4°C° 0 mm 2 mps 722 mmHg 93%
    04:00 +4°C° 0 mm 2 mps 722 mmHg 94%
    05:00 +4°C° 0 mm 2 mps 722 mmHg 94%
    06:00 +4°C° 0 mm 1 mps 722 mmHg 94%
    07:00 +4°C° 0 mm 2 mps 722 mmHg 91%
    08:00 +5°C° 0 mm 2 mps 722 mmHg 89%
    09:00 +5°C° 0 mm 3 mps 722 mmHg 86%
    10:00 +7°C° 0.1 mm 3 mps 722 mmHg 82%
    11:00 +7°C° 0.1 mm 4 mps 722 mmHg 77%
    12:00 +8°C° 0.1 mm 4 mps 721 mmHg 72%
    13:00 +10°C° 0.1 mm 4 mps 721 mmHg 69%
    14:00 +11°C° 0.1 mm 4 mps 720 mmHg 67%
    15:00 +12°C° 0.1 mm 4 mps 720 mmHg 64%
    16:00 +11°C° 0.2 mm 4 mps 720 mmHg 70%
    17:00 +10°C° 0.2 mm 3 mps 720 mmHg 75%
    18:00 +9°C° 0.2 mm 3 mps 720 mmHg 81%
    19:00 +9°C° 0 mm 3 mps 720 mmHg 83%
    20:00 +8°C° 0 mm 3 mps 720 mmHg 85%
    21:00 +7°C° 0 mm 3 mps 720 mmHg 87%
    22:00 +7°C° 0 mm 2 mps 720 mmHg 87%
    23:00 +7°C° 0 mm 2 mps 721 mmHg 88%
    Show more